QPF
0.01 0.05 0.14 0.15 0.13 0.08 0.04 0.03 0.03 0.04 0.06 0.04 0.03 0.02 0.01 0.00 0.00 0.00 0.00 0.00 0.00 0.00 0.00 0.00 0.00 0.00 0.00 0.00 0.00 0.00 0.00 0.00 0.02 0.08 0.17 0.24 0.28 0.25 0.23 0.22 0.12 0.07 0.02 0.01
0.01 0.03 0.04 0.03 0.03 0.02 0.02 0.04 0.04 0.03 0.05 0.03 0.02 0.01 0.01 0.00 0.00 0.00 0.00 0.00 0.00 0.00 0.00 0.00 0.00 0.00 0.00 0.00 0.00 0.00 0.00 0.00 0.01 0.04 0.08 0.13 0.17 0.13 0.13 0.14 0.12 0.08 0.04 0.02
0.01 0.02 0.01 0.01 0.01 0.02 0.03 0.06 0.08 0.06 0.04 0.03 0.02 0.01 0.00 0.00 0.00 0.00 0.00 0.00 0.00 0.00 0.00 0.00 0.00 0.00 0.00 0.00 0.00 0.00 0.00 0.00 0.00 0.01 0.03 0.06 0.14 0.17 0.22 0.22 0.20 0.16 0.10 0.05
0.00 0.00 0.00 0.00 0.00 0.01 0.04 0.04 0.04 0.04 0.04 0.03 0.03 0.03 0.00 0.00 0.00 0.00 0.00 0.00 0.00 0.00 0.00 0.00 0.00 0.00 0.00 0.00 0.00 0.00 0.00 0.00 0.00 0.00 0.02 0.06 0.12 0.15 0.14 0.13 0.17 0.13 0.11 0.09
0.00 0.00 0.00 0.00 0.00 0.01 0.02 0.02 0.03 0.03 0.03 0.03 0.02 0.03 0.01 0.00 0.00 0.00 0.00 0.00 0.00 0.00 0.00 0.00 0.00 0.00 0.00 0.00 0.00 0.00 0.00 0.00 0.00 0.00 0.01 0.04 0.07 0.08 0.07 0.07 0.15 0.14 0.11 0.11
0.00 0.00 0.00 0.00 0.00 0.00 0.00 0.01 0.02 0.02 0.04 0.04 0.02 0.04 0.02 0.00 0.00 0.00 0.00 0.00 0.00 0.00 0.00 0.00 0.00 0.00 0.00 0.00 0.00 0.00 0.00 0.00 0.00 0.00 0.00 0.01 0.03 0.04 0.05 0.07 0.11 0.13 0.13 0.12
0.00 0.00 0.00 0.00 0.00 0.00 0.00 0.02 0.06 0.07 0.08 0.06 0.02 0.03 0.02 0.01 0.00 0.00 0.00 0.00 0.00 0.00 0.00 0.00 0.00 0.00 0.00 0.00 0.00 0.00 0.00 0.00 0.00 0.00 0.00 0.00 0.01 0.01 0.02 0.03 0.05 0.06 0.08 0.09
0.00 0.00 0.00 0.00 0.00 0.00 0.00 0.01 0.05 0.08 0.08 0.06 0.03 0.02 0.01 0.00 0.00 0.00 0.00 0.00 0.00 0.00 0.00 0.00 0.00 0.00 0.00 0.00 0.00 0.00 0.00 0.00 0.00 0.00 0.00 0.00 0.00 0.00 0.00 0.01 0.03 0.05 0.06 0.06
0.00 0.00 0.00 0.00 0.00 0.00 0.00 0.00 0.00 0.02 0.02 0.03 0.02 0.01 0.01 0.00 0.00 0.00 0.00 0.00 0.01 0.00 0.00 0.00 0.00 0.00 0.00 0.00 0.00 0.00 0.00 0.00 0.00 0.00 0.00 0.00 0.00 0.00 0.00 0.00 0.02 0.04 0.04 0.03
0.00 0.00 0.00 0.00 0.00 0.00 0.00 0.00 0.01 0.03 0.07 0.07 0.03 0.03 0.04 0.03 0.02 0.01 0.01 0.01 0.01 0.02 0.02 0.01 0.00 0.00 0.00 0.00 0.00 0.00 0.00 0.00 0.00 0.00 0.00 0.00 0.00 0.00 0.00 0.01 0.01 0.01 0.01 0.01
0.00 0.01 0.00 0.00 0.00 0.01 0.02 0.02 0.03 0.06 0.07 0.10 0.12 0.10 0.08 0.10 0.10 0.10 0.08 0.07 0.08 0.11 0.11 0.08 0.05 0.03 0.00 0.00 0.00 0.00 0.00 0.00 0.00 0.00 0.00 0.00 0.00 0.00 0.00 0.00 0.00 0.00 0.01 0.01
0.00 0.04 0.03 0.00 0.01 0.02 0.04 0.06 0.08 0.18 0.16 0.13 0.17 0.14 0.07 0.09 0.12 0.10 0.06 0.04 0.04 0.04 0.04 0.04 0.04 0.02 0.01 0.00 0.00 0.00 0.00 0.00 0.00 0.00 0.00 0.00 0.00 0.00 0.00 0.00 0.00 0.00 0.00 0.01
0.01 0.07 0.09 0.06 0.10 0.16 0.14 0.11 0.06 0.07 0.14 0.14 0.15 0.10 0.06 0.07 0.09 0.09 0.06 0.05 0.02 0.01 0.01 0.00 0.00 0.00 0.00 0.00 0.00 0.00 0.01 0.00 0.00 0.00 0.00 0.00 0.00 0.00 0.00 0.00 0.00 0.00 0.01 0.01
0.02 0.06 0.13 0.17 0.22 0.27 0.26 0.15 0.06 0.05 0.16 0.15 0.11 0.08 0.07 0.08 0.06 0.03 0.02 0.01 0.01 0.01 0.01 0.00 0.00 0.00 0.00 0.00 0.00 0.00 0.00 0.00 0.00 0.00 0.00 0.00 0.00 0.00 0.00 0.00 0.00 0.00 0.01 0.02
0.01 0.03 0.05 0.06 0.05 0.06 0.09 0.06 0.02 0.01 0.04 0.10 0.06 0.04 0.04 0.04 0.03 0.01 0.00 0.00 0.00 0.00 0.00 0.00 0.00 0.00 0.00 0.00 0.00 0.00 0.00 0.01 0.01 0.00 0.00 0.00 0.00 0.00 0.00 0.00 0.00 0.00 0.01 0.01
0.00 0.01 0.01 0.01 0.01 0.02 0.03 0.05 0.05 0.05 0.05 0.05 0.05 0.05 0.02 0.01 0.00 0.00 0.00 0.00 0.00 0.00 0.00 0.00 0.00 0.00 0.00 0.00 0.00 0.00 0.00 0.01 0.01 0.00 0.00 0.00 0.00 0.00 0.01 0.01 0.01 0.01 0.01 0.01
0.00 0.02 0.03 0.02 0.01 0.03 0.14 0.18 0.18 0.13 0.05 0.03 0.04 0.03 0.01 0.00 0.01 0.01 0.01 0.01 0.01 0.01 0.00 0.00 0.00 0.00 0.00 0.00 0.00 0.01 0.00 0.01 0.01 0.00 0.00 0.00 0.01 0.01 0.02 0.02 0.03 0.04 0.05 0.05
0.02 0.06 0.09 0.06 0.05 0.14 0.33 0.26 0.19 0.17 0.08 0.02 0.01 0.00 0.00 0.02 0.05 0.04 0.02 0.02 0.02 0.01 0.01 0.01 0.01 0.01 0.01 0.01 0.01 0.01 0.01 0.01 0.01 0.02 0.02 0.02 0.03 0.05 0.06 0.06 0.07 0.10 0.10 0.08
0.02 0.07 0.11 0.12 0.12 0.21 0.28 0.18 0.15 0.23 0.22 0.06 0.01 0.01 0.00 0.02 0.04 0.02 0.02 0.03 0.03 0.02 0.02 0.02 0.02 0.02 0.02 0.02 0.01 0.02 0.02 0.03 0.03 0.04 0.03 0.03 0.03 0.04 0.05 0.07 0.10 0.11 0.12 0.15
0.01 0.05 0.07 0.08 0.10 0.22 0.20 0.09 0.07 0.17 0.31 0.10 0.02 0.01 0.00 0.01 0.01 0.01 0.02 0.01 0.02 0.01 0.01 0.01 0.01 0.01 0.01 0.01 0.01 0.01 0.01 0.01 0.01 0.01 0.01 0.00 0.00 0.01 0.02 0.04 0.06 0.08 0.09 0.13
0.00 0.01 0.03 0.04 0.08 0.20 0.17 0.10 0.08 0.18 0.27 0.10 0.02 0.00 0.00 0.00 0.00 0.00 0.01 0.01 0.00 0.00 0.00 0.00 0.00 0.00 0.00 0.00 0.01 0.01 0.01 0.01 0.00 0.00 0.00 0.00 0.00 0.00 0.01 0.02 0.03 0.04 0.06 0.08
0.00 0.01 0.01 0.01 0.05 0.11 0.11 0.13 0.15 0.13 0.09 0.04 0.01 0.00 0.00 0.00 0.00 0.00 0.01 0.00 0.00 0.00 0.00 0.00 0.00 0.00 0.00 0.00 0.00 0.00 0.00 0.00 0.00 0.00 0.00 0.00 0.00 0.00 0.00 0.01 0.02 0.02 0.03 0.04
0.00 0.01 0.01 0.01 0.02 0.03 0.05 0.09 0.08 0.07 0.05 0.01 0.00 0.00 0.00 0.00 0.00 0.00 0.00 0.00 0.00 0.00 0.00 0.00 0.00 0.00 0.00 0.00 0.00 0.00 0.00 0.00 0.00 0.00 0.00 0.00 0.00 0.00 0.00 0.01 0.01 0.02 0.02 0.03
0.00 0.00 0.01 0.01 0.01 0.01 0.02 0.03 0.03 0.04 0.04 0.01 0.00 0.00 0.00 0.00 0.00 0.00 0.00 0.00 0.00 0.00 0.00 0.00 0.00 0.00 0.00 0.00 0.00 0.00 0.00 0.00 0.00 0.00 0.00 0.00 0.00 0.00 0.01 0.01 0.02 0.03 0.03 0.06
0.00 0.00 0.00 0.01 0.00 0.00 0.00 0.01 0.02 0.03 0.01 0.01 0.00 0.00 0.00 0.00 0.00 0.00 0.00 0.00 0.00 0.00 0.00 0.00 0.00 0.00 0.00 0.00 0.00 0.00 0.00 0.00 0.00 0.00 0.00 0.00 0.00 0.00 0.00 0.00 0.00 0.01 0.02 0.03
0.00 0.00 0.00 0.00 0.00 0.00 0.00 0.01 0.01 0.01 0.01 0.00 0.00 0.00 0.00 0.00 0.00 0.00 0.00 0.00 0.00 0.00 0.00 0.00 0.00 0.00 0.00 0.00 0.00 0.00 0.00 0.00 0.00 0.00 0.00 0.00 0.00 0.00 0.00 0.00 0.00 0.00 0.00 0.01
MSLP
1008.54 1009.01 1009.39 1009.69 1009.93 1010.12 1010.29 1010.43 1010.52 1010.51 1010.36 1010.03 1009.48 1008.73 1007.82 1006.81 1005.80 1004.88 1004.14 1003.64 1003.38 1003.36 1003.54 1003.83 1004.17 1004.50 1004.80 1005.05 1005.28 1005.51 1005.81 1006.20 1006.68 1007.27 1007.90 1008.54 1009.14 1009.63 1009.98 1010.21 1010.32 1010.37 1010.41 1010.49
1008.93 1009.26 1009.52 1009.74 1009.95 1010.20 1010.49 1010.81 1011.11 1011.31 1011.34 1011.11 1010.57 1009.74 1008.65 1007.40 1006.12 1004.94 1003.98 1003.32 1003.00 1002.99 1003.24 1003.66 1004.15 1004.63 1005.03 1005.35 1005.59 1005.82 1006.07 1006.40 1006.84 1007.39 1008.00 1008.64 1009.24 1009.74 1010.11 1010.33 1010.43 1010.45 1010.46 1010.52
1009.04 1009.21 1009.33 1009.46 1009.65 1009.94 1010.36 1010.86 1011.37 1011.80 1012.01 1011.90 1011.41 1010.53 1009.31 1007.86 1006.35 1004.94 1003.78 1002.98 1002.58 1002.59 1002.92 1003.47 1004.10 1004.73 1005.26 1005.66 1005.96 1006.19 1006.42 1006.70 1007.08 1007.56 1008.13 1008.73 1009.31 1009.80 1010.15 1010.37 1010.47 1010.48 1010.48 1010.52
1008.92 1008.93 1008.91 1008.95 1009.11 1009.44 1009.96 1010.63 1011.34 1011.96 1012.35 1012.37 1011.95 1011.06 1009.76 1008.17 1006.49 1004.90 1003.59 1002.67 1002.22 1002.23 1002.62 1003.27 1004.04 1004.80 1005.46 1005.96 1006.31 1006.56 1006.77 1007.01 1007.32 1007.73 1008.23 1008.77 1009.29 1009.75 1010.08 1010.29 1010.39 1010.41 1010.42 1010.47
1008.67 1008.55 1008.42 1008.38 1008.51 1008.87 1009.46 1010.25 1011.11 1011.90 1012.44 1012.59 1012.24 1011.38 1010.06 1008.41 1006.63 1004.93 1003.51 1002.51 1002.01 1002.01 1002.44 1003.16 1004.02 1004.88 1005.63 1006.21 1006.61 1006.88 1007.07 1007.27 1007.52 1007.85 1008.27 1008.73 1009.19 1009.60 1009.91 1010.11 1010.21 1010.25 1010.28 1010.35
1008.48 1008.25 1008.04 1007.94 1008.03 1008.39 1009.02 1009.88 1010.83 1011.72 1012.37 1012.62 1012.37 1011.57 1010.28 1008.64 1006.84 1005.11 1003.64 1002.60 1002.06 1002.04 1002.46 1003.20 1004.09 1004.99 1005.78 1006.40 1006.83 1007.11 1007.29 1007.44 1007.63 1007.90 1008.23 1008.62 1009.02 1009.37 1009.65 1009.85 1009.96 1010.03 1010.09 1010.18
1008.50 1008.21 1007.95 1007.80 1007.85 1008.18 1008.80 1009.65 1010.63 1011.55 1012.26 1012.58 1012.40 1011.69 1010.49 1008.92 1007.19 1005.49 1004.04 1002.99 1002.43 1002.36 1002.73 1003.42 1004.28 1005.14 1005.92 1006.53 1006.96 1007.22 1007.39 1007.51 1007.66 1007.87 1008.15 1008.47 1008.81 1009.12 1009.38 1009.57 1009.69 1009.78 1009.87 1010.00
1008.84 1008.54 1008.25 1008.07 1008.07 1008.34 1008.89 1009.67 1010.58 1011.47 1012.17 1012.52 1012.41 1011.80 1010.73 1009.29 1007.68 1006.09 1004.70 1003.67 1003.09 1002.96 1003.24 1003.82 1004.57 1005.34 1006.03 1006.58 1006.96 1007.21 1007.35 1007.47 1007.60 1007.78 1008.02 1008.31 1008.61 1008.89 1009.13 1009.31 1009.44 1009.55 1009.67 1009.82
1009.54 1009.26 1008.96 1008.75 1008.69 1008.87 1009.29 1009.94 1010.72 1011.51 1012.14 1012.48 1012.42 1011.91 1010.99 1009.72 1008.28 1006.83 1005.55 1004.56 1003.96 1003.75 1003.90 1004.33 1004.90 1005.51 1006.07 1006.52 1006.83 1007.04 1007.18 1007.29 1007.43 1007.62 1007.86 1008.14 1008.43 1008.69 1008.92 1009.09 1009.23 1009.35 1009.49 1009.66
1010.51 1010.27 1009.99 1009.74 1009.62 1009.67 1009.94 1010.42 1011.02 1011.65 1012.17 1012.46 1012.42 1012.01 1011.23 1010.15 1008.90 1007.62 1006.46 1005.52 1004.90 1004.59 1004.59 1004.82 1005.19 1005.60 1005.98 1006.30 1006.54 1006.71 1006.85 1006.99 1007.17 1007.39 1007.67 1007.96 1008.26 1008.52 1008.74 1008.91 1009.05 1009.17 1009.32 1009.51
1011.61 1011.41 1011.15 1010.89 1010.69 1010.63 1010.74 1011.01 1011.42 1011.86 1012.25 1012.46 1012.42 1012.07 1011.42 1010.52 1009.45 1008.33 1007.28 1006.40 1005.74 1005.34 1005.17 1005.19 1005.33 1005.53 1005.74 1005.92 1006.08 1006.22 1006.37 1006.56 1006.80 1007.09 1007.42 1007.77 1008.09 1008.37 1008.59 1008.75 1008.88 1009.00 1009.14 1009.33
1012.63 1012.50 1012.27 1012.00 1011.76 1011.59 1011.55 1011.65 1011.86 1012.13 1012.36 1012.48 1012.41 1012.10 1011.55 1010.78 1009.87 1008.89 1007.94 1007.08 1006.39 1005.88 1005.54 1005.36 1005.29 1005.29 1005.33 1005.40 1005.49 1005.62 1005.81 1006.06 1006.37 1006.75 1007.15 1007.55 1007.91 1008.20 1008.42 1008.58 1008.69 1008.79 1008.92 1009.10
1013.44 1013.37 1013.19 1012.95 1012.69 1012.47 1012.33 1012.29 1012.34 1012.45 1012.55 1012.57 1012.45 1012.15 1011.66 1010.98 1010.16 1009.28 1008.38 1007.54 1006.80 1006.18 1005.70 1005.35 1005.10 1004.93 1004.84 1004.82 1004.87 1005.00 1005.23 1005.55 1005.95 1006.40 1006.87 1007.32 1007.71 1008.02 1008.24 1008.38 1008.47 1008.54 1008.65 1008.82
1013.96 1013.96 1013.86 1013.67 1013.45 1013.23 1013.05 1012.94 1012.90 1012.89 1012.87 1012.80 1012.62 1012.30 1011.81 1011.16 1010.39 1009.54 1008.67 1007.81 1007.02 1006.31 1005.71 1005.22 1004.84 1004.56 1004.38 1004.30 1004.34 1004.49 1004.76 1005.14 1005.60 1006.11 1006.63 1007.12 1007.53 1007.84 1008.05 1008.16 1008.22 1008.27 1008.35 1008.49
1014.20 1014.29 1014.29 1014.20 1014.07 1013.92 1013.77 1013.66 1013.58 1013.51 1013.42 1013.26 1013.01 1012.63 1012.10 1011.43 1010.65 1009.78 1008.88 1007.99 1007.14 1006.37 1005.69 1005.12 1004.66 1004.31 1004.09 1003.99 1004.03 1004.21 1004.51 1004.93 1005.43 1005.98 1006.51 1007.01 1007.41 1007.70 1007.89 1007.97 1008.00 1008.01 1008.05 1008.17
1014.28 1014.47 1014.58 1014.64 1014.64 1014.61 1014.56 1014.51 1014.45 1014.36 1014.22 1014.00 1013.67 1013.20 1012.60 1011.86 1011.01 1010.09 1009.15 1008.21 1007.31 1006.49 1005.77 1005.16 1004.68 1004.32 1004.10 1004.01 1004.07 1004.26 1004.59 1005.02 1005.52 1006.05 1006.57 1007.03 1007.40 1007.66 1007.80 1007.85 1007.84 1007.81 1007.82 1007.89
1014.34 1014.62 1014.87 1015.08 1015.24 1015.37 1015.46 1015.50 1015.50 1015.43 1015.27 1014.99 1014.58 1014.01 1013.31 1012.47 1011.53 1010.54 1009.53 1008.54 1007.61 1006.78 1006.06 1005.46 1005.00 1004.67 1004.48 1004.43 1004.50 1004.70 1005.02 1005.42 1005.88 1006.36 1006.82 1007.22 1007.53 1007.73 1007.83 1007.84 1007.79 1007.73 1007.69 1007.73
1014.53 1014.90 1015.26 1015.61 1015.94 1016.22 1016.45 1016.62 1016.69 1016.65 1016.47 1016.14 1015.65 1014.98 1014.16 1013.22 1012.18 1011.11 1010.04 1009.02 1008.09 1007.27 1006.59 1006.04 1005.64 1005.37 1005.23 1005.21 1005.31 1005.50 1005.78 1006.12 1006.50 1006.89 1007.26 1007.56 1007.80 1007.94 1007.98 1007.95 1007.88 1007.79 1007.72 1007.71
1014.92 1015.35 1015.80 1016.27 1016.72 1017.13 1017.48 1017.73 1017.86 1017.84 1017.65 1017.27 1016.70 1015.94 1015.02 1013.98 1012.86 1011.73 1010.62 1009.60 1008.69 1007.92 1007.30 1006.84 1006.52 1006.33 1006.24 1006.26 1006.36 1006.53 1006.75 1007.01 1007.28 1007.56 1007.81 1008.02 1008.16 1008.24 1008.24 1008.19 1008.09 1007.99 1007.90 1007.87
1015.51 1015.96 1016.46 1016.98 1017.50 1017.98 1018.39 1018.70 1018.85 1018.83 1018.61 1018.18 1017.54 1016.70 1015.71 1014.60 1013.43 1012.27 1011.17 1010.17 1009.31 1008.62 1008.09 1007.72 1007.49 1007.38 1007.36 1007.40 1007.49 1007.62 1007.77 1007.93 1008.10 1008.25 1008.39 1008.50 1008.57 1008.59 1008.57 1008.50 1008.41 1008.31 1008.22 1008.16
1016.23 1016.65 1017.14 1017.65 1018.17 1018.65 1019.07 1019.36 1019.50 1019.45 1019.19 1018.71 1018.01 1017.12 1016.08 1014.95 1013.77 1012.63 1011.56 1010.63 1009.85 1009.25 1008.82 1008.55 1008.41 1008.37 1008.39 1008.45 1008.53 1008.61 1008.69 1008.76 1008.82 1008.86 1008.90 1008.93 1008.94 1008.93 1008.90 1008.84 1008.77 1008.69 1008.62 1008.56
1016.95 1017.30 1017.71 1018.16 1018.62 1019.04 1019.39 1019.63 1019.71 1019.60 1019.28 1018.75 1018.02 1017.11 1016.07 1014.95 1013.81 1012.72 1011.73 1010.89 1010.21 1009.71 1009.38 1009.20 1009.13 1009.15 1009.21 1009.28 1009.34 1009.38 1009.39 1009.38 1009.36 1009.32 1009.29 1009.26 1009.24 1009.22 1009.20 1009.18 1009.15 1009.11 1009.06 1009.02
1017.52 1017.78 1018.09 1018.43 1018.77 1019.08 1019.33 1019.47 1019.46 1019.28 1018.91 1018.34 1017.60 1016.70 1015.69 1014.63 1013.57 1012.57 1011.67 1010.93 1010.35 1009.95 1009.71 1009.60 1009.60 1009.65 1009.73 1009.80 1009.85 1009.86 1009.83 1009.77 1009.69 1009.61 1009.53 1009.48 1009.46 1009.45 1009.46 1009.48 1009.50 1009.51 1009.51 1009.50
1017.86 1018.01 1018.20 1018.41 1018.63 1018.81 1018.93 1018.96 1018.86 1018.60 1018.18 1017.60 1016.86 1016.00 1015.06 1014.08 1013.12 1012.23 1011.44 1010.80 1010.32 1010.00 1009.82 1009.77 1009.80 1009.87 1009.96 1010.03 1010.07 1010.06 1010.01 1009.93 1009.83 1009.73 1009.66 1009.61 1009.60 1009.63 1009.68 1009.75 1009.82 1009.88 1009.93 1009.95
1017.92 1017.97 1018.05 1018.15 1018.24 1018.30 1018.31 1018.24 1018.05 1017.74 1017.29 1016.70 1016.00 1015.20 1014.34 1013.46 1012.61 1011.82 1011.14 1010.59 1010.19 1009.92 1009.78 1009.75 1009.79 1009.87 1009.96 1010.03 1010.06 1010.05 1010.01 1009.93 1009.85 1009.77 1009.71 1009.69 1009.71 1009.77 1009.87 1009.99 1010.11 1010.22 1010.31 1010.37
1017.71 1017.69 1017.70 1017.71 1017.72 1017.70 1017.63 1017.48 1017.24 1016.89 1016.44 1015.87 1015.21 1014.48 1013.70 1012.92 1012.17 1011.48 1010.89 1010.40 1010.04 1009.80 1009.67 1009.64 1009.67 1009.73 1009.81 1009.88 1009.92 1009.93 1009.91 1009.87 1009.82 1009.78 1009.76 1009.77 1009.83 1009.93 1010.05 1010.20 1010.36 1010.51 1010.63 1010.72
Thickness
5775 5765 5755 5758 5760 5758 5758 5755 5756 5768 5773 5766 5765 5772 5788 5805 5809 5808 5810 5813 5814 5815 5820 5821 5820 5817 5814 5809 5806 5802 5796 5793 5788 5780 5773 5768 5763 5761 5759 5757 5754 5751 5749 5747
5757 5750 5759 5764 5762 5755 5749 5742 5743 5756 5763 5758 5757 5765 5782 5795 5803 5808 5809 5810 5812 5813 5814 5811 5811 5808 5805 5801 5798 5796 5792 5788 5784 5777 5771 5766 5761 5758 5756 5754 5750 5747 5744 5742
5742 5751 5761 5755 5750 5744 5740 5732 5729 5730 5742 5750 5743 5746 5765 5789 5803 5808 5812 5813 5815 5812 5807 5803 5802 5800 5797 5793 5790 5787 5785 5782 5777 5772 5766 5761 5755 5751 5748 5745 5742 5742 5739 5737
5750 5760 5755 5746 5743 5739 5729 5738 5731 5725 5718 5716 5722 5711 5746 5773 5786 5798 5803 5807 5808 5809 5807 5798 5796 5793 5790 5787 5785 5782 5778 5777 5771 5766 5759 5752 5745 5740 5740 5740 5738 5736 5734 5732
5745 5755 5748 5740 5743 5742 5734 5738 5729 5720 5710 5705 5715 5705 5732 5759 5763 5782 5795 5800 5803 5804 5800 5792 5791 5788 5786 5782 5778 5777 5772 5769 5765 5761 5755 5748 5743 5739 5739 5738 5734 5730 5728 5726
5752 5762 5755 5747 5749 5746 5740 5728 5721 5716 5706 5693 5712 5703 5712 5737 5748 5764 5779 5789 5793 5795 5793 5787 5785 5781 5776 5773 5771 5769 5765 5761 5758 5755 5751 5745 5740 5736 5733 5730 5726 5723 5721 5719
5740 5752 5759 5752 5733 5736 5731 5710 5688 5683 5680 5690 5715 5706 5712 5739 5755 5762 5768 5777 5784 5785 5782 5776 5772 5768 5764 5763 5763 5762 5758 5753 5751 5748 5747 5745 5740 5736 5731 5727 5722 5717 5714 5711
5716 5722 5741 5739 5728 5722 5724 5713 5684 5669 5674 5684 5697 5700 5724 5748 5758 5766 5771 5774 5775 5774 5772 5768 5764 5761 5758 5758 5757 5756 5753 5748 5746 5744 5744 5743 5739 5731 5727 5724 5719 5714 5710 5708
5701 5705 5730 5732 5730 5724 5714 5713 5717 5697 5689 5681 5695 5713 5728 5742 5749 5757 5763 5765 5764 5766 5765 5763 5760 5758 5755 5754 5753 5752 5748 5744 5741 5739 5739 5736 5734 5728 5723 5719 5716 5712 5709 5706
5701 5687 5703 5716 5720 5721 5719 5716 5702 5684 5667 5672 5692 5693 5680 5697 5708 5728 5743 5751 5755 5759 5759 5759 5757 5756 5754 5753 5750 5748 5746 5742 5738 5736 5734 5731 5727 5723 5718 5715 5711 5709 5707 5704
5693 5675 5678 5688 5690 5687 5691 5688 5689 5684 5679 5665 5663 5670 5685 5680 5683 5691 5709 5724 5735 5735 5736 5740 5746 5751 5753 5752 5748 5744 5742 5739 5735 5732 5729 5724 5720 5717 5713 5710 5707 5705 5702 5700
5679 5663 5652 5666 5680 5675 5669 5661 5663 5654 5657 5666 5660 5662 5682 5679 5679 5684 5694 5712 5727 5736 5741 5743 5744 5748 5750 5750 5748 5744 5741 5737 5732 5729 5725 5720 5717 5712 5708 5706 5704 5702 5699 5696
5659 5641 5625 5636 5650 5646 5637 5639 5650 5666 5666 5660 5657 5660 5677 5677 5679 5684 5692 5704 5718 5729 5737 5743 5745 5746 5746 5746 5745 5744 5740 5736 5731 5725 5720 5716 5712 5708 5705 5704 5702 5700 5696 5693
5651 5632 5617 5606 5614 5621 5620 5623 5642 5658 5653 5655 5659 5659 5662 5668 5671 5682 5692 5704 5716 5724 5731 5735 5738 5741 5743 5743 5742 5741 5738 5735 5729 5721 5715 5711 5709 5706 5704 5702 5699 5696 5694 5690
5641 5623 5623 5624 5628 5628 5623 5628 5645 5655 5660 5655 5656 5652 5652 5662 5670 5683 5694 5704 5713 5719 5725 5730 5733 5736 5738 5738 5738 5737 5735 5732 5725 5717 5710 5707 5706 5704 5701 5697 5694 5692 5689 5688
5633 5617 5615 5616 5628 5632 5622 5620 5638 5645 5646 5645 5643 5639 5649 5663 5673 5680 5689 5697 5704 5712 5719 5725 5729 5731 5732 5733 5732 5731 5729 5726 5721 5713 5707 5705 5702 5699 5696 5692 5689 5686 5683 5682
5625 5613 5603 5605 5622 5627 5598 5588 5601 5612 5621 5627 5621 5625 5641 5652 5659 5668 5678 5687 5694 5702 5709 5715 5719 5723 5726 5729 5727 5722 5721 5719 5714 5708 5704 5701 5696 5692 5689 5686 5683 5680 5677 5675
5620 5611 5602 5601 5610 5595 5572 5579 5586 5598 5606 5608 5613 5622 5633 5641 5652 5664 5671 5676 5682 5690 5697 5704 5710 5713 5717 5719 5718 5715 5711 5707 5702 5697 5693 5690 5687 5684 5681 5678 5676 5674 5672 5669
5623 5609 5600 5594 5594 5584 5575 5579 5580 5582 5594 5599 5603 5615 5627 5641 5654 5660 5667 5672 5674 5681 5687 5693 5699 5702 5704 5705 5705 5702 5696 5692 5687 5683 5680 5678 5676 5672 5670 5667 5666 5666 5664 5663
5621 5613 5599 5593 5586 5574 5568 5580 5588 5592 5591 5595 5599 5609 5620 5630 5633 5644 5662 5669 5671 5676 5681 5685 5689 5692 5691 5692 5691 5687 5683 5679 5675 5672 5670 5668 5665 5662 5659 5658 5658 5658 5657 5656
5603 5599 5592 5586 5582 5572 5576 5583 5592 5585 5579 5588 5598 5608 5616 5621 5630 5647 5662 5669 5671 5672 5675 5678 5679 5679 5680 5681 5679 5674 5671 5668 5667 5666 5663 5660 5658 5655 5653 5651 5650 5650 5650 5649
5593 5586 5582 5581 5575 5571 5585 5585 5578 5577 5585 5593 5601 5610 5618 5627 5640 5653 5663 5669 5671 5671 5671 5672 5671 5671 5672 5672 5670 5665 5663 5664 5663 5660 5657 5655 5652 5649 5647 5645 5644 5643 5642 5640
5594 5585 5582 5580 5578 5586 5589 5585 5585 5587 5590 5597 5606 5615 5623 5631 5643 5654 5662 5670 5671 5671 5669 5669 5667 5667 5667 5666 5664 5660 5659 5661 5659 5655 5652 5650 5647 5643 5640 5638 5637 5636 5634 5632
5598 5594 5588 5585 5588 5591 5591 5591 5592 5594 5596 5604 5612 5620 5628 5635 5645 5655 5663 5671 5672 5671 5668 5667 5666 5664 5662 5663 5661 5659 5658 5657 5656 5651 5647 5644 5640 5636 5633 5630 5628 5627 5625 5623
5596 5592 5586 5585 5588 5591 5592 5593 5595 5599 5605 5612 5619 5626 5632 5639 5648 5657 5665 5672 5674 5672 5669 5666 5664 5660 5661 5661 5658 5656 5654 5653 5651 5648 5643 5639 5634 5630 5626 5621 5616 5616 5613 5611
5606 5593 5584 5582 5586 5585 5589 5597 5602 5605 5610 5617 5624 5631 5638 5645 5652 5660 5666 5671 5674 5673 5670 5666 5662 5660 5660 5659 5656 5652 5650 5649 5646 5641 5637 5633 5629 5626 5623 5619 5613 5607 5606 5604